Content
SEND FEEDBACK

Daily
Averages
Monthly
Summary
United States of America

YIGO, GUAM


Home > North America > United States > Guam
Elevation: 162 meters     Latitude: 13 32N     Longitude: 144 53E

WEATHER
 
SELECT A DAY
Number of Records: 208,919;   Date Range: 1/1/95 - 7/23/14
 
SHARE

PRINT THIS DATA

[ ← Previous Day ]
WEATHER ALMANAC - 7 JUNE, 2014
[ Next Day → ]
[ °F ]   °C
Weather ElementAverageHighLow
Temperature29.1 °C31.7 °C (11:54 am)25 °C (2:54 am)
Dewpoint23.9 °C24.4 °C (6:54 am)22.8 °C (2:54 am)
Humidity74.1 %88 % (2:54 am)61 % (2:54 pm)
Barometer1007.1 hPa1008.5 hPa (8:54 pm)1005.8 hPa (2:54 pm)
Wind Speed9.3 km/h16.7 km/h (12:54 pm)
Weather ElementAverage
Visibility16.1 km
Wind DirectionENE (77.4 °)

Weather ElementTotal
Precipitation---
Cooling Degree Days10.1 (Base 18.3)
Growing Degree Days18.4 (Base 10)
Averaged from 23 records on 7 June, 2014
WEATHER CONDITIONS BREAKOUT
WIND DIRECTION BREAKOUT
WEATHER BY HOUR - 7 JUNE, 2014
[ °F ]   °C
Local TimeTemperatureDewpointHumidityBarometerVisibilityWind DirectionWind SpeedGust SpeedPrecipitationEventsConditions
1:54 AM27.2 °C23.9 °C82 %1006.8 hPa16.1 kmENE (70°)5.6 km/hClear
2:54 AM25 °C22.8 °C88 %1006.8 hPa16.1 kmCalmClear
3:54 AM26.1 °C23.3 °C84 %1007.1 hPa16.1 kmCalmClear
4:54 AM26.7 °C23.9 °C85 %1007.5 hPa16.1 kmENE (60°)7.4 km/hClear
5:54 AM26.7 °C23.9 °C85 %1007.5 hPa16.1 kmENE (70°)5.6 km/hClear
6:54 AM28.3 °C24.4 °C79 %1008.1 hPa16.1 kmCalmClear
7:54 AM28.9 °C23.9 °C74 %1007.8 hPa16.1 kmEast (90°)7.4 km/hClear
8:54 AM30 °C23.9 °C70 %1007.8 hPa16.1 kmENE (60°)13 km/hPartly Cloudy
9:54 AM30.6 °C24.4 °C69 %1007.8 hPa16.1 kmESE (110°)13 km/hPartly Cloudy
10:54 AM31.1 °C23.3 °C63 %1007.5 hPa16.1 kmEast (100°)14.8 km/hPartly Cloudy
11:54 AM31.7 °C23.9 °C63 %1007.1 hPa16.1 kmESE (120°)13 km/hPartly Cloudy
12:54 PM31.7 °C23.9 °C63 %1006.8 hPa16.1 kmESE (110°)16.7 km/hPartly Cloudy
1:54 PM31.7 °C23.9 °C63 %1006.1 hPa16.1 kmEast (100°)16.7 km/hClear
2:54 PM31.7 °C23.3 °C61 %1005.8 hPa16.1 kmSE (130°)13 km/hPartly Cloudy
3:54 PM30.6 °C23.9 °C67 %1005.8 hPa16.1 kmESE (110°)16.7 km/hPartly Cloudy
4:54 PM30 °C23.9 °C70 %1005.8 hPa16.1 kmEast (90°)16.7 km/hPartly Cloudy
5:54 PM30 °C24.4 °C72 %1006.4 hPa16.1 kmEast (100°)11.1 km/hPartly Cloudy
6:54 PM28.9 °C23.9 °C74 %1007.1 hPa16.1 kmESE (110°)11.1 km/hPartly Cloudy
7:54 PM28.9 °C24.4 °C76 %1007.8 hPa16.1 kmEast (80°)11.1 km/hPartly Cloudy
8:54 PM28.3 °C23.9 °C77 %1008.5 hPa16.1 kmEast (90°)9.3 km/hPartly Cloudy
9:54 PM28.3 °C24.4 °C79 %1008.5 hPa16.1 kmEast (90°)5.6 km/hPartly Cloudy
10:54 PM27.8 °C24.4 °C82 %1008.5 hPa16.1 kmCalmPartly Cloudy
11:54 PM28.3 °C24.4 °C79 %1008.1 hPa16.1 kmEast (90°)7.4 km/hPartly Cloudy
Hourly data recorded from PGUM, located 0 kilometers away from Yigo, Guam







STORIES FROM OUR PARTNERS